Location: Chanteloup
(48.8560°N, 2.7390°E)
Time: 23:18:59
(UTC+00:00)

Cosmos 2322 Rocket - Pass Details

Date: 06 June 2022
Orbit: 833 x 851 km, 71.0° (Epoch: 06 July)

Event Time Altitude Azimuth Distance (km) Brightness Sun altitude
Rises 22:59:47 0° 283° (WNW) 3,382 5.7 -17.6°
Reaches altitude 10° 23:04:23 10° 317° (NW) 2,453 5.5 -17.8°
Maximum altitude 23:06:00 11° 334° (NNW) 2,372 5.7 -17.8°
Drops below altitude 10° 23:07:38 10° 351° (N) 2,457 5.9 -17.9°
Sets 23:12:16 0° 26° (NNE) 3,398 6.3 -18.0°
